NK7E Weather Reports


Display with metric or nautical units.
time (UTC)temp
F
wind
direction
speed
MPH
gust
MPH
rain 1hr
in
rain 24hr
in
rain mn
in
humidity
%
barometer
mb
20260904165015 84 135 3.0 5.0 0.00 0.00 0.00 58 1017.3
20260904164015 82 135 3.0 6.0 0.00 0.00 0.00 62 1017.3
20260904163015 83 135 3.0 9.0 0.00 0.00 0.00 62 1017.2
20260904162016 83 135 4.0 8.0 0.00 0.00 0.00 62 1017.2
20260904161015 81 113 3.0 7.0 0.00 0.00 0.00 65 1017.1
20260904160015 80 68 3.0 5.0 0.00 0.00 0.00 66 1017.1
20260904155016 80 135 3.0 8.0 0.00 0.00 0.00 66 1017.1
20260904154015 81 90 4.0 7.0 0.00 0.00 0.00 65 1017.1
20260904153015 81 135 4.0 8.0 0.00 0.00 0.00 64 1017.0
20260904152015 81 135 3.0 6.0 0.00 0.00 0.00 65 1016.9
20260904151015 80 68 3.0 6.0 0.00 0.00 0.00 67 1016.9
20260904150015 79 90 3.0 7.0 0.00 0.00 0.00 69 1016.9
20260904145015 77 68 2.0 5.0 0.00 0.00 0.00 72 1016.9
20260904144015 77 45 2.0 4.0 0.00 0.00 0.00 73 1016.9
20260904143015 77 68 2.0 4.0 0.00 0.00 0.00 73 1016.8
20260904142015 77 68 2.0 3.0 0.00 0.00 0.00 72 1016.7
20260904141015 77 68 2.0 3.0 0.00 0.00 0.00 73 1016.7
20260904140016 76 45 1.0 4.0 0.00 0.00 0.00 74 1016.5
20260904135015 76 68 1.0 3.0 0.00 0.00 0.00 75 1016.4
20260904134015 76 0.0 2.0 0.00 0.00 0.00 74 1016.3
20260904133015 76 0.0 0.0 0.00 0.00 0.00 73 1016.0
20260904132015 76 0.0 0.0 0.00 0.00 0.00 73 1015.8
20260904131015 76 0.0 1.0 0.00 0.00 0.00 72 1015.6
20260904130015 76 0.0 0.0 0.00 0.00 0.00 73 1015.6
20260904125016 76 0.0 0.0 0.00 0.00 0.00 72 1015.5
20260904124015 76 0.0 0.0 0.00 0.00 0.00 72 1015.3
20260904123015 77 0.0 0.0 0.00 0.00 0.00 71 1015.1
20260904122015 77 0.0 1.0 0.00 0.00 0.00 70 1015.1
20260904121015 78 0.0 1.0 0.00 0.00 0.00 69 1015.1
20260904120015 78 0.0 0.0 0.00 0.00 0.00 69 1015.1
20260904115015 78 0.0 0.0 0.00 0.00 0.00 67 1015.0
20260904114015 78 0.0 2.0 0.00 0.00 0.00 67 1015.1
20260904113015 78 45 2.0 6.0 0.00 0.00 0.00 67 1015.0
20260904112015 78 68 3.0 8.0 0.00 0.00 0.00 67 1015.0
20260904111015 79 0.0 2.0 0.00 0.00 0.00 66 1015.1
20260904110015 79 68 4.0 7.0 0.00 0.00 0.00 66 1015.1
20260904105015 79 90 2.0 4.0 0.00 0.00 0.00 66 1015.0
20260904104015 79 90 3.0 6.0 0.00 0.00 0.00 66 1015.0
20260904103015 79 90 2.0 6.0 0.00 0.00 0.00 66 1015.1
20260904102015 79 113 2.0 6.0 0.00 0.00 0.00 66 1015.0
20260904101015 79 90 2.0 7.0 0.00 0.00 0.00 66 1015.0
20260904100015 79 90 4.0 8.0 0.00 0.00 0.00 67 1014.9
20260904095015 79 90 3.0 7.0 0.00 0.00 0.00 67 1014.8
20260904094015 79 68 3.0 8.0 0.00 0.00 0.00 67 1014.7
20260904093015 79 90 5.0 9.0 0.00 0.00 0.00 66 1014.7
20260904092015 79 90 4.0 7.0 0.00 0.00 0.00 66 1014.6
20260904091015 79 90 4.0 9.0 0.00 0.00 0.00 66 1014.8
20260904090015 79 68 3.0 5.0 0.00 0.00 0.00 66 1014.8
20260904085015 79 90 3.0 7.0 0.00 0.00 0.00 66 1014.7
20260904084015 79 90 3.0 7.0 0.00 0.00 0.00 65 1014.7
20260904083015 79 90 2.0 7.0 0.00 0.00 0.00 65 1014.8
20260904082015 80 90 4.0 11.0 0.00 0.00 0.00 64 1014.9
20260904081017 80 90 3.0 7.0 0.00 0.00 0.00 65 1014.9
20260904080017 80 90 3.0 8.0 0.00 0.00 0.00 64 1015.0
20260904075017 80 68 3.0 7.0 0.00 0.00 0.00 64 1015.0
20260904074017 79 45 3.0 6.0 0.00 0.00 0.00 65 1014.9
20260904073017 79 68 1.0 3.0 0.00 0.00 0.00 65 1015.1
20260904072017 79 45 1.0 5.0 0.00 0.00 0.00 65 1015.2
20260904071017 79 68 3.0 6.0 0.00 0.00 0.00 65 1015.2
20260904070017 80 68 4.0 8.0 0.00 0.00 0.00 65 1015.2
20260904065015 80 68 3.0 8.0 0.00 0.00 0.00 64 1015.2
20260904064016 80 68 5.0 9.0 0.00 0.00 0.00 64 1015.2
20260904063015 80 90 3.0 8.0 0.00 0.00 0.00 63 1015.1
20260904062016 80 68 3.0 7.0 0.00 0.00 0.00 63 1015.1
20260904061015 80 68 3.0 7.0 0.00 0.00 0.00 63 1015.1
20260904060015 80 90 2.0 4.0 0.00 0.00 0.00 63 1015.0
20260904055015 80 90 3.0 6.0 0.00 0.00 0.00 62 1014.8
20260904054015 81 90 1.0 4.0 0.00 0.00 0.00 61 1014.9
20260904053015 81 90 4.0 9.0 0.00 0.00 0.00 60 1014.7
20260904052015 81 90 4.0 9.0 0.00 0.00 0.00 59 1014.8
20260904051015 81 90 2.0 7.0 0.00 0.00 0.00 60 1014.9
20260904050015 81 90 3.0 6.0 0.00 0.00 0.00 59 1014.9
20260904045015 81 68 3.0 5.0 0.00 0.00 0.00 60 1014.9
20260904044015 81 90 3.0 6.0 0.00 0.00 0.00 60 1015.0
20260904043015 82 90 2.0 4.0 0.00 0.00 0.00 60 1015.1
20260904042015 82 90 2.0 5.0 0.00 0.00 0.00 59 1015.1
20260904041016 82 90 2.0 5.0 0.00 0.00 0.00 59 1015.1
20260904040015 82 90 4.0 10.0 0.00 0.00 0.00 59 1014.9
20260904035015 82 90 5.0 10.0 0.00 0.00 0.00 59 1014.8
20260904034015 82 90 6.0 11.0 0.00 0.00 0.00 59 1014.6
20260904033015 82 113 4.0 7.0 0.00 0.00 0.00 59 1014.7
20260904032015 82 113 4.0 9.0 0.00 0.00 0.00 59 1014.4
20260904031015 82 90 6.0 10.0 0.00 0.00 0.00 59 1014.2
20260904030015 83 90 4.0 8.0 0.00 0.00 0.00 59 1014.2
20260904025015 83 90 5.0 10.0 0.00 0.00 0.00 58 1013.8
20260904024015 83 90 4.0 7.0 0.00 0.00 0.00 58 1013.7
20260904023015 83 90 3.0 7.0 0.00 0.00 0.00 58 1013.7
20260904022015 83 90 4.0 7.0 0.00 0.00 0.00 58 1013.7
20260904021015 83 90 4.0 8.0 0.00 0.00 0.00 58 1013.7
20260904020015 83 68 4.0 9.0 0.00 0.00 0.00 57 1013.6
20260904015015 83 90 4.0 7.0 0.00 0.00 0.00 56 1013.5
20260904014015 84 135 4.0 8.0 0.00 0.00 0.00 55 1013.3
20260904013015 85 135 5.0 11.0 0.00 0.00 0.00 54 1013.3
20260904012015 85 0 2.0 6.0 0.00 0.00 0.00 55 1013.0
20260904011015 85 0 4.0 10.0 0.00 0.00 0.00 55 1012.8
20260904010016 85 0 2.0 6.0 0.00 0.00 0.00 56 1012.8
20260904005015 85 0.0 0.0 0.00 0.00 0.00 55 1012.8
20260904004015 85 0 1.0 3.0 0.00 0.00 0.00 56 1012.9
20260904003015 84 0 1.0 2.0 0.00 0.00 0.00 58 1012.9
20260904002015 84 0.0 1.0 0.00 0.00 0.00 61 1012.7
20260904001015 84 0 2.0 4.0 0.00 0.00 0.00 64 1012.8
20260904000015 83 0.0 1.0 0.00 0.00 0.00 64 1013.0
20260903235015 84 0 3.0 10.0 0.00 0.00 0.00 65 1012.9
20260903234015 88 0 6.0 17.0 0.00 0.00 0.00 56 1013.0
20260903233015 89 180 3.0 6.0 0.00 0.00 0.00 45 1012.9
20260903232015 90 203 5.0 9.0 0.00 0.00 0.00 45 1012.9
20260903231015 90 203 5.0 11.0 0.00 0.00 0.00 45 1012.8
20260903230015 90 225 2.0 5.0 0.00 0.00 0.00 44 1012.9
20260903225015 91 225 3.0 7.0 0.00 0.00 0.00 44 1012.9
20260903224015 91 248 4.0 10.0 0.00 0.00 0.00 42 1012.8
20260903223015 92 225 5.0 12.0 0.00 0.00 0.00 42 1012.8
20260903222015 91 248 3.0 7.0 0.00 0.00 0.00 43 1012.9
20260903221015 91 158 2.0 4.0 0.00 0.00 0.00 42 1013.0
20260903220017 92 203 3.0 11.0 0.00 0.00 0.00 43 1013.2
20260903215017 92 293 4.0 8.0 0.00 0.00 0.00 42 1013.2
20260903214017 93 203 4.0 7.0 0.00 0.00 0.00 40 1013.3
20260903213017 92 158 2.0 8.0 0.00 0.00 0.00 42 1013.4
20260903212017 92 270 4.0 8.0 0.00 0.00 0.00 42 1013.5
20260903211017 93 225 4.0 9.0 0.00 0.00 0.00 41 1013.7
20260903210017 93 248 5.0 9.0 0.00 0.00 0.00 42 1013.8
20260903205017 92 338 1.0 4.0 0.00 0.00 0.00 43 1013.9
20260903204017 90 315 3.0 8.0 0.00 0.00 0.00 45 1014.2
20260903203017 91 270 2.0 7.0 0.00 0.00 0.00 44 1014.2
20260903202017 91 135 3.0 7.0 0.00 0.00 0.00 45 1014.6
20260903201017 91 180 4.0 9.0 0.00 0.00 0.00 46 1014.7
20260903200017 90 225 3.0 8.0 0.00 0.00 0.00 46 1014.9
20260903195017 89 225 2.0 7.0 0.00 0.00 0.00 48 1015.1
20260903194017 89 315 1.0 5.0 0.00 0.00 0.00 48 1015.2
20260903193017 90 158 2.0 6.0 0.00 0.00 0.00 47 1015.2
20260903192017 88 113 2.0 5.0 0.00 0.00 0.00 51 1015.5
20260903191017 87 113 3.0 6.0 0.00 0.00 0.00 51 1015.7
20260903190017 87 203 3.0 7.0 0.00 0.00 0.00 51 1015.8
20260903185017 85 45 3.0 6.0 0.00 0.00 0.00 54 1016.0
20260903184017 86 135 4.0 7.0 0.00 0.00 0.00 53 1016.1
20260903183017 86 158 3.0 8.0 0.00 0.00 0.00 53 1016.3
20260903182017 86 225 2.0 5.0 0.00 0.00 0.00 54 1016.4
20260903181017 86 135 2.0 6.0 0.00 0.00 0.00 53 1016.6
20260903180017 85 135 4.0 8.0 0.00 0.00 0.00 56 1016.7
20260903175017 85 135 4.0 8.0 0.00 0.00 0.00 55 1016.9
20260903174017 85 135 4.0 10.0 0.00 0.00 0.00 56 1016.8
20260903173017 84 158 4.0 9.0 0.00 0.00 0.00 58 1016.9
20260903172017 83 135 4.0 10.0 0.00 0.00 0.00 59 1016.9
20260903171017 83 135 3.0 7.0 0.00 0.00 0.00 60 1016.8
20260903170017 82 90 3.0 7.0 0.00 0.00 0.00 62 1016.8